TimePST,TemperatureF,Dew PointF,Humidity,Sea Level PressureIn,VisibilityMPH,Wind Direction,Wind SpeedMPH,Gust SpeedMPH,PrecipitationIn,Events,Conditions,WindDirDegrees,DateUTC
12:15 AM,48.2,42.8,82,30.10,6.0,NNW,19.6,29.9,N/A,,Haze,330,2013-03-09 08:15:00
12:35 AM,48.2,42.8,82,30.12,6.0,NNW,19.6,27.6,N/A,,Haze,330,2013-03-09 08:35:00
12:55 AM,48.2,42.8,82,30.12,6.0,NNW,20.7,24.2,N/A,,Haze,330,2013-03-09 08:55:00
1:15 AM,48.2,44.6,87,30.12,5.0,NNW,15.0,21.9,N/A,,Haze,330,2013-03-09 09:15:00
1:35 AM,48.2,44.6,87,30.13,5.0,NNW,17.3,24.2,N/A,,Haze,330,2013-03-09 09:35:00
1:55 AM,48.2,42.8,82,30.13,6.0,NNW,17.3,24.2,N/A,,Haze,340,2013-03-09 09:55:00
2:15 AM,48.2,42.8,82,30.12,5.0,North,13.8,26.5,N/A,,Haze,350,2013-03-09 10:15:00
2:35 AM,48.2,42.8,82,30.12,7.0,North,16.1,20.7,N/A,,Overcast,350,2013-03-09 10:35:00
2:55 AM,48.2,42.8,82,30.11,5.0,NNW,15.0,20.7,N/A,,Haze,340,2013-03-09 10:55:00
3:15 AM,48.2,44.6,87,30.12,5.0,North,11.5,-,N/A,,Haze,350,2013-03-09 11:15:00
3:35 AM,48.2,44.6,87,30.13,5.0,NNW,10.4,-,N/A,,Haze,340,2013-03-09 11:35:00
3:55 AM,48.2,44.6,87,30.14,5.0,NNW,15.0,19.6,N/A,,Haze,330,2013-03-09 11:55:00
4:15 AM,48.2,44.6,87,30.15,5.0,NNW,16.1,-,N/A,,Haze,340,2013-03-09 12:15:00
4:35 AM,48.2,44.6,87,30.16,6.0,NNW,17.3,23.0,N/A,,Haze,340,2013-03-09 12:35:00
4:55 AM,48.2,44.6,87,30.17,6.0,North,15.0,20.7,N/A,,Overcast,350,2013-03-09 12:55:00
5:15 AM,48.2,44.6,87,30.18,6.0,North,16.1,21.9,N/A,,Overcast,350,2013-03-09 13:15:00
5:35 AM,48.2,42.8,82,30.19,7.0,North,13.8,20.7,N/A,,Mostly Cloudy,350,2013-03-09 13:35:00
5:55 AM,48.2,42.8,82,30.20,7.0,North,11.5,18.4,N/A,,Mostly Cloudy,10,2013-03-09 13:55:00
6:15 AM,48.2,44.6,87,30.21,5.0,North,11.5,-,N/A,,Mostly Cloudy,10,2013-03-09 14:15:00
6:35 AM,48.2,44.6,87,30.21,5.0,North,16.1,19.6,N/A,,Overcast,10,2013-03-09 14:35:00
6:55 AM,48.2,44.6,87,30.22,5.0,North,18.4,24.2,N/A,,Overcast,10,2013-03-09 14:55:00
7:15 AM,48.2,42.8,82,30.22,5.0,North,12.7,19.6,N/A,,Haze,10,2013-03-09 15:15:00
7:35 AM,48.2,41.0,76,30.22,8.0,NNE,13.8,-,N/A,,Clear,20,2013-03-09 15:35:00
7:55 AM,48.2,41.0,76,30.24,7.0,NNE,15.0,-,N/A,,Clear,20,2013-03-09 15:55:00
8:15 AM,50.0,42.8,76,30.24,6.0,NNE,12.7,-,N/A,,Haze,30,2013-03-09 16:15:00
8:35 AM,51.8,41.0,67,30.26,7.0,South,4.6,-,N/A,,Clear,180,2013-03-09 16:35:00
8:55 AM,53.6,41.0,62,30.27,8.0,Calm,Calm,-,N/A,,Clear,0,2013-03-09 16:55:00
9:15 AM,53.6,42.8,67,30.27,5.0,NNW,9.2,-,N/A,,Haze,330,2013-03-09 17:15:00
9:35 AM,51.8,44.6,76,30.28,8.0,NNW,12.7,-,N/A,,Clear,340,2013-03-09 17:35:00
9:55 AM,53.6,44.6,72,30.28,6.0,NNW,13.8,-,N/A,,Haze,340,2013-03-09 17:55:00
10:15 AM,51.8,44.6,76,30.29,7.0,NNW,13.8,-,N/A,,Clear,330,2013-03-09 18:15:00
10:35 AM,51.8,44.6,76,30.29,8.0,NNW,15.0,-,N/A,,Clear,330,2013-03-09 18:35:00
10:55 AM,53.6,44.6,72,30.30,8.0,NNW,15.0,-,N/A,,Clear,330,2013-03-09 18:55:00
11:15 AM,53.6,44.6,72,30.30,8.0,NNW,15.0,-,N/A,,Clear,340,2013-03-09 19:15:00
11:35 AM,55.4,44.6,67,30.30,8.0,North,11.5,-,N/A,,Clear,350,2013-03-09 19:35:00
11:55 AM,53.6,44.6,72,30.31,8.0,NNW,13.8,-,N/A,,Clear,330,2013-03-09 19:55:00
12:15 PM,55.4,44.6,67,30.32,8.0,NNW,13.8,-,N/A,,Clear,330,2013-03-09 20:15:00
12:35 PM,53.6,46.4,77,30.32,8.0,NNW,17.3,-,N/A,,Clear,340,2013-03-09 20:35:00
12:55 PM,53.6,46.4,77,30.31,6.0,North,12.7,-,N/A,,Haze,350,2013-03-09 20:55:00
1:15 PM,53.6,46.4,77,30.30,6.0,NNW,16.1,-,N/A,,Haze,340,2013-03-09 21:15:00
1:35 PM,53.6,48.2,82,30.30,5.0,NNW,17.3,23.0,N/A,,Haze,340,2013-03-09 21:35:00
1:55 PM,53.6,48.2,82,30.30,5.0,NNW,18.4,23.0,N/A,,Haze,330,2013-03-09 21:55:00
2:15 PM,53.6,48.2,82,30.30,5.0,North,16.1,21.9,N/A,,Haze,350,2013-03-09 22:15:00
2:35 PM,53.6,48.2,82,30.30,5.0,NNW,17.3,-,N/A,,Haze,340,2013-03-09 22:35:00
2:55 PM,53.6,46.4,77,30.30,6.0,North,17.3,21.9,N/A,,Haze,350,2013-03-09 22:55:00
3:15 PM,53.6,46.4,77,30.29,5.0,NNW,18.4,23.0,N/A,,Haze,340,2013-03-09 23:15:00
3:35 PM,53.6,46.4,77,30.29,5.0,NNW,16.1,23.0,N/A,,Haze,340,2013-03-09 23:35:00
4:15 PM,53.6,46.4,77,30.30,5.0,NNW,16.1,-,N/A,,Haze,330,2013-03-10 00:15:00
4:35 PM,53.6,46.4,77,30.29,5.0,NW,13.8,-,N/A,,Haze,320,2013-03-10 00:35:00
4:55 PM,53.6,46.4,77,30.29,5.0,NNW,12.7,-,N/A,,Haze,330,2013-03-10 00:55:00
5:15 PM,53.6,46.4,77,30.29,5.0,NNW,9.2,-,N/A,,Haze,340,2013-03-10 01:15:00
5:35 PM,51.8,46.4,82,30.29,5.0,NW,10.4,-,N/A,,Haze,320,2013-03-10 01:35:00
5:55 PM,50.0,46.4,87,30.30,5.0,NW,6.9,-,N/A,,Haze,320,2013-03-10 01:55:00
6:15 PM,50.0,46.4,87,30.30,5.0,NW,4.6,-,N/A,,Clear,320,2013-03-10 02:15:00
6:35 PM,48.2,44.6,87,30.31,5.0,NW,5.8,-,N/A,,Partly Cloudy,320,2013-03-10 02:35:00
7:15 PM,50.0,46.4,87,30.31,5.0,North,10.4,-,N/A,,Clear,350,2013-03-10 03:15:00
7:35 PM,48.2,44.6,87,30.31,5.0,North,8.1,-,N/A,,Clear,350,2013-03-10 03:35:00
7:55 PM,48.2,44.6,87,30.32,5.0,North,3.5,-,N/A,,Clear,350,2013-03-10 03:55:00
8:15 PM,48.2,44.6,87,30.32,5.0,NW,3.5,-,N/A,,Clear,320,2013-03-10 04:15:00
8:35 PM,48.2,44.6,87,30.32,5.0,North,5.8,-,N/A,,Clear,10,2013-03-10 04:35:00
8:55 PM,48.2,44.6,87,30.32,7.0,ESE,3.5,-,N/A,,Partly Cloudy,110,2013-03-10 04:55:00
9:15 PM,44.6,41.0,87,30.33,7.0,Calm,Calm,-,N/A,,Clear,0,2013-03-10 05:15:00
9:35 PM,46.4,42.8,87,30.34,7.0,Calm,Calm,-,N/A,,Clear,0,2013-03-10 05:35:00
9:55 PM,44.6,41.0,87,30.34,7.0,Calm,Calm,-,N/A,,Clear,0,2013-03-10 05:55:00
10:15 PM,42.8,41.0,93,30.33,7.0,West,3.5,-,N/A,,Partly Cloudy,280,2013-03-10 06:15:00
10:35 PM,42.8,39.2,87,30.33,6.0,ESE,4.6,-,N/A,,Partly Cloudy,120,2013-03-10 06:35:00
10:55 PM,42.8,41.0,93,30.33,6.0,Calm,Calm,-,N/A,,Clear,0,2013-03-10 06:55:00
11:15 PM,41.0,39.2,93,30.33,6.0,North,3.5,-,N/A,,Clear,360,2013-03-10 07:15:00
11:35 PM,41.0,39.2,93,30.34,5.0,Calm,Calm,-,N/A,,Clear,0,2013-03-10 07:35:00
11:55 PM,41.0,39.2,93,30.34,5.0,Calm,Calm,-,N/A,,Partly Cloudy,0,2013-03-10 07:55:00